This is the latest recevied weather packets stored in our database for station/object EA1HTW-1. If no packets are shown the sender has not sent any weather packets the latest 10 day(s).
| Time | Temp. | Humidity | Pressure | Rain* | Wind** | Luminosity | Snow |
|---|---|---|---|---|---|---|---|
| 1777735766 | 16.67° C | 74% | 985.9 hPa | 0 mm | - | - | - |
| 1777735165 | 17.22° C | 71% | 986 hPa | 0 mm | - | - | - |
| 1777734564 | 17.22° C | 72% | 986 hPa | 0 mm | - | - | - |
| 1777733965 | 17.22° C | 70% | 986.1 hPa | 0 mm | - | - | - |
| 1777732766 | 17.78° C | 71% | 986.3 hPa | 0 mm | - | - | - |
| 1777732165 | 17.22° C | 69% | 986.4 hPa | 0 mm | - | - | - |
| 1777731564 | 18.33° C | 68% | 986.4 hPa | 0 mm | - | - | - |
| 1777730964 | 17.78° C | 69% | 986.5 hPa | 0 mm | - | - | - |
| 1777730366 | 17.22° C | 72% | 986.5 hPa | 0 mm | - | - | - |
| 1777729765 | 18.33° C | 70% | 986.4 hPa | 0 mm | - | - | - |
| 1777729165 | 17.78° C | 69% | 986.6 hPa | 0 mm | - | - | - |
| 1777728564 | 18.89° C | 69% | 986.5 hPa | 0 mm | - | - | - |
| 1777725565 | 18.33° C | 66% | 987 hPa | 0 mm | - | - | - |
| 1777724964 | 17.78° C | 68% | 987 hPa | 0 mm | - | - | - |
| 1777724365 | 17.78° C | 69% | 987 hPa | 0 mm | - | - | - |
| 1777723764 | 17.22° C | 70% | 987.1 hPa | 0 mm | - | - | - |
| 1777722563 | 17.22° C | 64% | 987.3 hPa | 0 mm | - | - | - |
| 1777720164 | 17.22° C | 64% | 987.6 hPa | 0 mm | - | - | - |
| 1777719565 | 16.67° C | 69% | 987.6 hPa | 0 mm | - | - | - |
| 1777718964 | 16.11° C | 71% | 987.8 hPa | 0 mm | - | - | - |
| 1777718364 | 16.11° C | 70% | 987.8 hPa | 0 mm | - | - | - |
| 1777717764 | 16.11° C | 71% | 987.7 hPa | 0 mm | - | - | - |
| 1777716564 | 17.22° C | 70% | 987.8 hPa | 0 mm | - | - | - |
| 1777714164 | 15.56° C | 73% | 987.9 hPa | 0 mm | - | - | - |
| 1777712965 | 14.44° C | 78% | 988.1 hPa | 0 mm | - | - | - |
* Rain latest hour (hover to see other rain measurements)
** Current wind speed in m/s (hover to see current wind gust speed)